Zurück zum Katalog

FENGYUN 1C DEB

AktivSSO
NORAD 33710·DEBRIS·🇨🇳 China

Gestartet May 10, 1999 von Taiyuan Satellite Launch Center

Loading…

Nächste Überflüge (nächste 24 Stunden)

TLE

AlterndSource: Space-Track

Epoche: Sep 9, 2026, 12:23 UTC

1 33710U 99025DGX 26252.51604538  .00000890  00000-0  49882-3 0  9999
2 33710  98.9847 356.7761 0055688 104.0927 256.6443 14.12488296714783

Verfolge FENGYUN 1C DEB in Echtzeit mit AllMySat

Download on the App Store